Waseca, MN

9:19 AM CDT on October 22, 2017 (GMT -0500)
Waseca Municipal

Weather History for KACQ - March, 2013

Change the Weather History Date:

Tuesday, March 5, 2013

  Actual Average Record
Temperature  
Mean Temperature 24 °F -  
Max Temperature 30 °F 34 °F 62 °F (1983)
Min Temperature 17 °F 15 °F -18 °F (1960)
Degree Days  
Heating Degree Days 42    
Moisture  
Dew Point 22 °F    
Average Humidity 88    
Maximum Humidity 93    
Minimum Humidity 74    
Precipitation  
Precipitation 0.16 in - - ()
Sea Level Pressure  
Sea Level Pressure 30.07 in    
Wind  
Wind Speed 9 mph (NNE)    
Max Wind Speed 17 mph    
Max Gust Speed -    
Averages and records for this station are not official NWS values.
T = Trace of Precipitation, MM = Missing Value Source: NWS Daily Summary

Daily Weather History Graph

Daily Weather History Graph

Search for Another Location

Airport or City:

Trip Planner

Search our weather history database for the weather conditions in past years. The results will help you decide how hot, cold, wet, or windy it might be!

Date:

Astronomy

Mar. 05, 2013 Rise Set
Actual Time 6:43 AM CST 6:08 PM CST
Civil Twilight 6:14 AM CST 6:36 PM CST
Nautical Twilight 5:41 AM CST 7:10 PM CST
Astronomical Twilight 5:07 AM CST 7:44 PM CST
Moon 2:05 AM CST (3/5) 11:38 AM CST (3/5)
Length of Visible Light 12h 22m
Length of Day
11h 24m
Last Quarter, 40% of the Moon is Illuminated
Mar 5
Last Quarter
Mar 11
New
Mar 19
First Quarter
Mar 27
Full
Apr 2
Last Quarter

Hourly Weather History & Observations

Time (CST) Temp. Windchill Dew Point Humidity Pressure Visibility Wind Dir Wind Speed Gust Speed Precip Events Conditions
12:35 AM 24.8 °F 16.1 °F 23.0 °F 93% 29.96 in - East 8.1 mph - N/A   Overcast
12:56 AM 24.8 °F 16.9 °F 23.0 °F 93% 29.97 in - East 6.9 mph - N/A   Unknown
1:16 AM 24.8 °F 17.9 °F 23.0 °F 93% 29.97 in - East 5.8 mph - N/A   Overcast
1:35 AM 24.8 °F 16.9 °F 23.0 °F 93% 29.97 in - ESE 6.9 mph - N/A   Overcast
1:55 AM 24.8 °F 16.1 °F 23.0 °F 93% 29.96 in - East 8.1 mph - N/A   Overcast
2:16 AM 24.8 °F 16.9 °F 23.0 °F 93% 29.96 in - East 6.9 mph - N/A   Overcast
2:36 AM 24.8 °F 17.9 °F 23.0 °F 93% 29.95 in - East 5.8 mph - N/A   Overcast
2:55 AM 24.8 °F 17.9 °F 23.0 °F 93% 29.95 in - East 5.8 mph - N/A   Overcast
3:16 AM 24.8 °F 17.9 °F 23.0 °F 93% 29.95 in - East 5.8 mph - N/A   Overcast
3:35 AM 24.8 °F 17.9 °F 23.0 °F 93% 29.95 in - East 5.8 mph - N/A   Overcast
3:56 AM 24.8 °F 17.9 °F 23.0 °F 93% 29.95 in - East 5.8 mph - N/A   Overcast
4:16 AM 24.8 °F 17.9 °F 23.0 °F 93% 29.95 in - East 5.8 mph - N/A   Overcast
5:16 AM 24.8 °F 16.1 °F 23.0 °F 93% 29.95 in - East 8.1 mph - N/A   Overcast
5:36 AM 24.8 °F 16.9 °F 23.0 °F 93% 29.94 in - East 6.9 mph - N/A   Overcast
5:55 AM 24.8 °F 16.9 °F 23.0 °F 93% 29.95 in - East 6.9 mph - N/A   Overcast
6:35 AM 24.8 °F 16.9 °F 23.0 °F 93% 29.96 in - East 6.9 mph - N/A   Overcast
6:56 AM 24.8 °F 16.9 °F 23.0 °F 93% 29.96 in - East 6.9 mph - N/A   Overcast
7:15 AM 24.8 °F 16.9 °F 23.0 °F 93% 29.96 in - East 6.9 mph - N/A   Overcast
7:36 AM 24.8 °F 17.9 °F 23.0 °F 93% 29.96 in - East 5.8 mph - N/A   Overcast
7:55 AM 24.8 °F 19.1 °F 23.0 °F 93% 29.96 in - ENE 4.6 mph - N/A   Overcast
8:16 AM 24.8 °F 17.9 °F 23.0 °F 93% 29.97 in - NE 5.8 mph - N/A   Overcast
8:35 AM 24.8 °F 17.9 °F 23.0 °F 93% 29.97 in - ENE 5.8 mph - N/A   Overcast
8:56 AM 26.6 °F 19.1 °F 23.0 °F 86% 29.97 in - ENE 6.9 mph - N/A   Overcast
9:16 AM 26.6 °F 20.0 °F 24.8 °F 93% 29.98 in - ENE 5.8 mph - N/A   Unknown
9:36 AM 26.6 °F 21.2 °F 24.8 °F 93% 29.99 in - NE 4.6 mph - N/A   Overcast
9:55 AM 26.6 °F 20.0 °F 23.0 °F 86% 29.99 in - NE 5.8 mph - N/A   Unknown
10:16 AM 26.6 °F 18.2 °F 23.0 °F 86% 30.00 in - NNE 8.1 mph - N/A   Overcast
10:36 AM 26.6 °F 18.2 °F 23.0 °F 86% 30.00 in - NNE 8.1 mph - N/A   Overcast
10:56 AM 26.6 °F 16.8 °F 23.0 °F 86% 30.00 in - NNE 10.4 mph - N/A   Unknown
11:16 AM 26.6 °F 16.2 °F 23.0 °F 86% 30.01 in - NNE 11.5 mph - N/A   Unknown
11:36 AM 28.4 °F 18.5 °F 23.0 °F 80% 30.01 in - North 11.5 mph - 0.01 in   Unknown
11:55 AM 28.4 °F 19.1 °F 23.0 °F 80% 30.03 in - NNE 10.4 mph - 0.04 in   Unknown
12:16 PM 30.2 °F 21.9 °F 24.8 °F 80% 30.03 in - North 9.2 mph - 0.02 in   Overcast
12:36 PM 30.2 °F 20.8 °F 24.8 °F 80% 30.03 in - North 11.5 mph - 0.05 in   Overcast
12:55 PM 30.2 °F 20.8 °F 24.8 °F 80% 30.04 in - North 11.5 mph - 0.09 in   Overcast
1:16 PM 30.2 °F 20.2 °F 24.8 °F 80% 30.05 in - North 12.7 mph - 0.02 in   Overcast
1:35 PM 28.4 °F 17.5 °F 24.8 °F 86% 30.05 in - North 13.8 mph - 0.03 in   Unknown
1:56 PM 30.2 °F 20.8 °F 24.8 °F 80% 30.05 in - North 11.5 mph - 0.03 in   Overcast
2:16 PM 30.2 °F 20.2 °F 23.0 °F 75% 30.06 in - North 12.7 mph - N/A   Overcast
2:35 PM 30.2 °F 19.8 °F 23.0 °F 75% 30.07 in - NNW 13.8 mph - N/A   Overcast
2:56 PM 30.2 °F 19.8 °F 23.0 °F 75% 30.08 in - NNW 13.8 mph - N/A   Overcast
3:16 PM 28.4 °F 17.5 °F 21.2 °F 74% 30.09 in - NNW 13.8 mph - N/A   Overcast
3:36 PM 26.6 °F 14.3 °F 21.2 °F 80% 30.10 in - NNW 16.1 mph - N/A   Overcast
3:56 PM 26.6 °F 14.3 °F 21.2 °F 80% 30.11 in - NNW 16.1 mph - N/A   Overcast
4:16 PM 26.6 °F 13.8 °F 21.2 °F 80% 30.12 in - NNW 17.3 mph - N/A   Overcast
4:36 PM 26.6 °F 14.3 °F 23.0 °F 86% 30.13 in - NW 16.1 mph - N/A   Overcast
4:56 PM 26.6 °F 14.7 °F 23.0 °F 86% 30.14 in - NNW 15.0 mph - N/A   Unknown
5:15 PM 26.6 °F 15.2 °F 23.0 °F 86% 30.15 in - NNW 13.8 mph - N/A   Unknown
5:36 PM 26.6 °F 15.2 °F 23.0 °F 86% 30.16 in - NNW 13.8 mph - N/A   Unknown
5:56 PM 26.6 °F 16.2 °F 23.0 °F 86% 30.17 in - NNW 11.5 mph - N/A   Unknown
6:16 PM 26.6 °F 15.2 °F 23.0 °F 86% 30.18 in - NNW 13.8 mph - N/A   Unknown
6:35 PM 26.6 °F 15.2 °F 23.0 °F 86% 30.19 in - NNW 13.8 mph - N/A   Unknown
6:56 PM 24.8 °F 12.9 °F 21.2 °F 86% 30.20 in - NNW 13.8 mph - N/A   Unknown
7:16 PM 24.8 °F 14.6 °F 21.2 °F 86% 30.20 in - North 10.4 mph - N/A   Unknown
7:36 PM 21.2 °F 10.9 °F 17.6 °F 86% 30.21 in - NNW 9.2 mph - N/A   Unknown
7:56 PM 19.4 °F 8.6 °F 15.8 °F 86% 30.22 in - NNW 9.2 mph - N/A   Unknown
8:16 PM 19.4 °F 7.9 °F 17.6 °F 93% 30.23 in - NW 10.4 mph - N/A   Unknown
8:36 PM 21.2 °F 9.5 °F 19.4 °F 93% 30.23 in - NNW 11.5 mph - N/A   Overcast
8:55 PM 23.0 °F 11.7 °F 19.4 °F 86% 30.23 in - NW 11.5 mph - N/A   Overcast
9:16 PM 23.0 °F 11.1 °F 19.4 °F 86% 30.25 in - NW 12.7 mph - N/A   Unknown
9:36 PM 23.0 °F 12.4 °F 19.4 °F 86% 30.25 in - NW 10.4 mph - N/A   Unknown
9:55 PM 21.2 °F 10.9 °F 19.4 °F 93% 30.25 in - NNW 9.2 mph - N/A   Unknown
10:15 PM 21.2 °F 8.9 °F 19.4 °F 93% 30.25 in - NW 12.7 mph - N/A   Unknown
10:36 PM 21.2 °F 8.9 °F 19.4 °F 93% 30.25 in - NNW 12.7 mph - N/A   Unknown
10:56 PM 19.4 °F 7.9 °F 17.6 °F 93% 30.27 in - NW 10.4 mph - N/A   Unknown
11:15 PM 17.6 °F 6.4 °F 14.0 °F 86% 30.28 in - NW 9.2 mph - N/A   Unknown
11:35 PM 17.6 °F 7.3 °F 15.8 °F 93% 30.29 in - NW 8.1 mph - N/A   Unknown
11:56 PM 19.4 °F 8.6 °F 17.6 °F 93% 30.28 in - NW 9.2 mph - N/A   Mostly Cloudy